Regional Weather Roundup
Issued by NWS

Home | Current Version | Previous Version | Text Only | Print | Product List | Glossary Off
Versions: 1 2 3 4 5 6 7 8 9 10 11 12 13 14 15 16 17 18 19 20 21 22 23 24 25 26 27 28 29 30 31 32 33 34 35 36 37 38 39 40 41 42 43 44 45 46 47 48 49 50

000
ASUS43 KOAX 302002
RWRNE

WEATHER ROUNDUP FOR NEBRASKA
NATIONAL WEATHER SERVICE OMAHA NE
300 PM CDT MON MAY 30 2016

NOTES: SATELLITE DATA IS BEING USED TO AUGMENT CLOUD COVER ABOVE
       12000 FEET.
       "FAIR" INDICATES FEW OR NO CLOUDS BELOW 12,000 FEET WITH NO
       SIGNIFICANT WEATHER AND/OR OBSTRUCTIONS TO VISIBILITY.

  * THESE STATIONS DO NOT REPORT WEATHER SUCH AS RAIN...SNOW OR FOG.

NEZ001>004-019>022-054>056-302100-
NEBRASKA PANHANDLE

CITY           SKY/WX    TMP DP  RH WIND       PRES   REMARKS
SCOTTSBLUFF    CLOUDY    75  42  30 W15       29.92F
ALLIANCE       MOSUNNY   77  47  34 W14       29.88F
CHADRON        MOSUNNY   81  44  27 W18G31    29.86F
SIDNEY         SUNNY     76  47  35 VRB5      29.92F
$$

NEZ057>060-069>072-079>082-302100-
SOUTHWEST NEBRASKA

CITY           SKY/WX    TMP DP  RH WIND       PRES   REMARKS
NORTH PLATTE   SUNNY     79  57  46 S10G21    29.89F
IMPERIAL       SUNNY     80  56  43 S14G28    29.89F
LEXINGTON      SUNNY     79  56  45 S14G21    29.90F
MCCOOK         SUNNY     81  60  48 S16G25    29.89F
$$

NEZ005>010-023>029-035>040-094-302100-
NORTH CENTRAL NEBRASKA

CITY           SKY/WX    TMP DP  RH WIND       PRES   REMARKS
VALENTINE      SUNNY     83  50  31 S21       29.83F
AINSWORTH      SUNNY     80  52  37 S20G25    29.87F
BROKEN BOW     SUNNY     81  58  45 S15G23    29.90F
ORD            SUNNY     82  57  42 S14G20    29.88F
$$

NEZ041-046>049-061>064-073>077-083>087-302100-
SOUTH CENTRAL NEBRASKA

CITY           SKY/WX    TMP DP  RH WIND       PRES   REMARKS
GRAND ISLAND   SUNNY     82  59  45 S16       29.91F
AURORA         SUNNY     81  56  43 SW13G22   29.92F
HASTINGS       SUNNY     81  54  39 SW15      29.91F
KEARNEY *      SUNNY     82  55  39 SW15G24   29.92F
YORK           SUNNY     81  59  47 SW14G24   29.92F
$$

NEZ011>018-030>034-042>045-302100-
NORTHEAST NEBRASKA

CITY           SKY/WX    TMP DP  RH WIND       PRES   REMARKS
NORFOLK        MOSUNNY   83  55  38 S15G25    29.89F
ALBION         CLOUDY    80  58  46 S13G20    29.90F
BLAIR          MOSUNNY   87  56  35 S14       29.91F
FREMONT        MOSUNNY   85  60  42 S13       29.90F
TEKAMAH        CLOUDY    87  51  28 S16       29.90F
$$

NEZ050>053-065>068-078-088>093-302100-
SOUTHEAST NEBRASKA

CITY           SKY/WX    TMP DP  RH WIND       PRES   REMARKS
LINCOLN        SUNNY     85  63  47 S15       29.91F
OMAHA EPPLEY   PTSUNNY   88  60  38 S12       29.90F
BEATRICE       MOSUNNY   83  62  48 S13G18    29.92F
FALLS CITY     MOSUNNY   85  63  47 S10G22    29.93F
NEBRASKA CITY  CLOUDY    83  60  44 S9        29.93F
PLATTSMOUTH    MOSUNNY   87  60  41 S12       29.92F
$$

NEZ044-045-051>053-067-302100-
OMAHA AREA

CITY           SKY/WX    TMP DP  RH WIND       PRES   REMARKS
OMAHA EPPLEY   PTSUNNY   88  60  38 S12       29.90F
BLAIR          MOSUNNY   87  56  35 S14       29.91F
FREMONT        MOSUNNY   85  60  42 S13       29.90F
PLATTSMOUTH    MOSUNNY   87  60  41 S12       29.92F
WAHOO          FAIR      88  55  32 S16G26    29.90F
$$




USA.gov is the U.S. government's official web portal to all federal, state and local government web resources and services.